Location: Cawdor Castle
(57.5167°N, 3.9333°W)
Time: 21:02:42
(UTC+00:00)

Daily predictions for brighter satellites

Satellite Brightness Start Highest point End
(mag) Time Altitude Azimuth Time Altitude Azimuth Time Altitude Azimuth
CZ-4C R/B 3.4 22:08:40 10° WNW 22:14:55 59° NNE 22:22:25 10° E
GEOS 3 Rocket 3.8 22:11:52 10° NE 22:17:12 59° SE 22:22:32 10° SSW
ATLAS 5 CENTAUR R/B 1.9 22:16:41 10° W 22:18:51 44° NNW 22:20:58 10° ENE
Cosmos 1315 Rocket 3.9 22:16:13 10° NNW 22:20:05 41° W 22:23:57 10° SSW
Cosmos 2333 Rocket 2.3 22:14:56 10° SSW 22:20:37 69° ESE 22:26:20 10° NE
Iridium 2 4.4 22:18:06 10° N 22:21:48 43° ENE 22:25:27 10° SSE
ALOS 2 3.9 22:20:02 10° ESE 22:23:55 32° ENE 22:27:51 10° N
Cosmos 2056 Rocket 3.7 22:21:06 10° NNW 22:26:32 78° ENE 22:31:59 10° SE
SL-16 R/B 3.9 22:24:43 10° WSW 22:30:02 39° NW 22:35:22 10° NNE
Cosmos 1892 3.1 22:27:00 10° S 22:30:39 48° E 22:34:22 10° NNE
NOSS 0 Rocket 4.4 22:25:01 10° S 22:30:47 44° ESE 22:36:36 10° NE
MTI 3.9 22:28:17 10° NNE 22:31:20 54° ESE 22:34:22 10° S
Cosmos 1606 3.9 22:29:49 10° N 22:33:23 33° ENE 22:36:57 10° SE
RESURS DK-1 4.3 22:30:35 10° NNW 22:34:09 27° NNE 22:37:43 10° E
Cosmos 2278 Rocket 2.8 22:29:18 10° NW 22:34:46 49° WSW 22:40:11 10° S
ATLAS 5 CENTAUR R/B 1.8 22:32:56 10° WSW 22:37:19 86° NNW 22:42:27 10° NE
Cosmos 2297 3.9 22:31:44 10° NW 22:37:32 76° NE 22:43:16 10° SE
Cosmos 1943 Rocket 3.0 22:32:39 10° NNW 22:38:13 50° NE 22:43:44 10° ESE
Cosmos 1408 3.2 22:38:07 10° SSE 22:41:28 39° E 22:44:50 10° NNE
USA 267 3.7 22:37:22 10° SE 22:43:38 46° SW 22:49:56 10° WNW
Cosmos 1680 Rocket 4.0 22:40:44 10° S 22:45:47 46° ESE 22:50:52 10° NE
Cosmos 371 Rocket 3.7 22:41:12 10° NNW 22:46:02 59° NE 22:50:51 10° SE
Cosmos 2221 3.5 22:42:51 10° NNW 22:47:01 43° W 22:51:09 10° SSW
APEX 3.2 22:48:03 10° NNW 22:50:47 47° NE 22:53:27 10° ESE
SL-16 R/B 3.6 22:46:49 10° SSE 22:51:07 23° ESE 22:55:27 10° NE
Lacrosse 5 rocket 1.2 22:48:06 10° W 22:52:16 76° SSW 22:56:11 10° ESE
Cosmos 1452 Rocket 4.0 22:48:13 10° NNW 22:53:27 56° NE 22:58:37 10° SE
Terra 3.3 22:55:23 10° SSW 22:59:35 30° W 23:03:49 10° NNW
Cosmos 2184 Rocket 4.2 22:55:31 10° SSW 23:01:46 76° WNW 23:08:09 10° N
Cosmos 1328 Rocket 4.1 22:57:42 10° N 23:01:56 50° ENE 23:06:06 10° SSE
In-Cosmos 22 Rocket 4.1 22:57:14 10° SSW 23:02:33 89° WNW 23:07:57 10° NNE
Cosmos 923 Rocket 4.0 22:58:24 10° SSW 23:03:39 72° ESE 23:08:58 10° NNE
Cosmos 2058 3.0 23:04:33 10° SSW 23:08:43 77° WNW 23:12:53 10° N
Okean 3 Rocket 4.2 23:07:35 11° SSE 23:11:36 43° E 23:15:49 10° NNE
Cosmos 1624 Rocket 4.5 23:11:35 10° NW 23:16:41 52° WSW 23:21:30 11° S
NOSS 3-4 (A) 4.5 23:10:25 10° WNW 23:16:45 41° SW 23:23:28 11° S
NOSS 3-4 (C) 4.5 23:10:32 10° WNW 23:16:52 41° SW 23:23:36 11° S
Cosmos 2322 Rocket 4.4 23:12:01 10° W 23:16:56 30° NNW 23:21:51 10° NNE
Cosmos 1825 2.2 23:14:45 11° S 23:18:20 67° E 23:22:08 10° NNE
Aureole 2 Rocket 2.5 23:15:47 10° NW 23:18:29 45° WSW 23:20:49 14° S
Cosmos 1340 4.1 23:15:33 11° SSE 23:18:31 25° E 23:21:41 10° NE
Cosmos 2369 Rocket 2.5 23:21:07 10° NW 23:26:44 68° NE 23:32:19 10° SE
Cosmos 1076 Rocket 4.0 23:25:10 10° SSW 23:29:24 57° WNW 23:33:38 10° N
Cosmos 304 Rocket 4.0 23:25:06 10° NNW 23:29:57 69° ENE 23:34:46 10° SE
NOSS 3-3 (A) 4.2 23:24:47 10° SW 23:30:57 89° NNW 23:38:04 10° ENE
NOSS 3-3 (C) 4.2 23:24:53 10° SW 23:31:03 89° NW 23:38:11 10° ENE
Cosmos 1980 3.7 23:25:46 10° SSW 23:31:25 82° SE 23:37:06 10° NE
Cosmos 1933 3.3 23:27:56 10° NNW 23:31:59 87° E 23:35:34 13° SSE
EO 1 Delta rocket 4.2 23:28:04 10° N 23:32:59 88° WNW 23:38:55 10° SSW
SL-4 R/B 0.8 23:33:31 16° SE 23:34:58 50° ENE 23:37:00 10° N
COSMOS 2455 2.9 23:29:25 10° NW 23:35:29 75° SW 23:41:31 10° SE
Cosmos 2151 3.0 23:32:16 11° S 23:36:27 86° ESE 23:40:45 10° NNE
Thor Agena Rocket 3.5 23:31:29 10° NNE 23:36:40 90° SW 23:41:44 10° SSW
Cosmos 1656 Rocket 4.4 23:31:30 10° NNW 23:36:48 50° NE 23:42:04 10° ESE
Helios 1A 3.2 23:34:08 11° SSE 23:38:03 65° ENE 23:42:11 10° NNW
COSMOS 2428 3.5 23:33:38 10° WSW 23:39:13 55° NW 23:44:51 10° NE
Genesis I 3.4 23:36:43 10° SSW 23:40:32 53° SE 23:44:21 10° ENE
Cosmos 2154 Rocket 4.4 23:35:46 10° SSW 23:41:55 62° WNW 23:48:08 10° N
ATLAS 2AS CENTAUR R/B 3.8 23:37:40 10° WNW 23:44:14 33° WSW 23:50:03 11° S
Cosmos 2341 Rocket 4.0 23:40:12 10° S 23:46:27 88° WNW 23:52:43 10° NNE
Cosmos 1151 Rocket 3.2 23:44:29 10° NNW 23:48:48 65° W 23:52:34 13° S
Cosmos 2237 Rocket 2.3 23:43:44 10° SW 23:49:28 84° NW 23:55:13 10° NE
Cosmos 1782 3.1 23:45:34 10° N 23:49:31 63° ENE 23:53:04 12° SSE
Cosmos 2219 Rocket 3.3 23:45:13 10° WSW 23:50:36 46° NW 23:56:02 10° NNE
USA 215 3.3 23:44:26 10° ENE 23:51:00 67° SSE 23:57:32 10° WSW
Cosmos 2360 Rocket 4.4 23:49:10 10° W 23:54:05 29° NNW 23:59:02 10° NE
Helios 1B rocket 4.3 23:53:39 10° NE 23:56:44 20° E 23:59:47 10° SE
